Weather History for Hollywood, FL

Change the Weather History Date:

Thursday, January 17, 2013

  Actual Average (KFLL) Record (KFLL)
Temperature  
Mean Temperature 70 °F 69 °F  
Max Temperature 81 °F 76 °F 86 °F (1957)
Min Temperature 60 °F 61 °F 33 °F (1977)
Degree Days  
Heating Degree Days 0 1  
Month to date heating degree days 33  
Since 1 July heating degree days 65  
Cooling Degree Days 6 5  
Month to date cooling degree days 94  
Year to date cooling degree days 94  
Growing Degree Days 20 (Base 50)    
Moisture  
Dew Point 64 °F    
Average Humidity 83    
Maximum Humidity 100    
Minimum Humidity 65    
Precipitation  
Precipitation 0.05 in 0.08 in 0.75 in (1963)
Month to date precipitation 1.38  
Year to date precipitation 1.38  
Snow  
Snow 0.00 in - - ()
Month to date snowfall  
Since 1 July snowfall  
Snow Depth -    
Sea Level Pressure  
Sea Level Pressure 30.08 in    
Wind  
Wind Speed 6 mph (SW)    
Max Wind Speed 20 mph    
Max Gust Speed 30 mph    
Visibility 10 miles    
Events Rain    
T = Trace of Precipitation, MM = Missing Value Source: NWS Daily Summary

Daily Weather History Graph

Daily Weather History Graph

Search for Another Location

Airport:

Trip Planner

Search our weather history database for the weather conditions in past years. The results will help you decide how hot, cold, wet, or windy it might be!

Date:

Astronomy

Jan. 17, 2013 Rise Set
Actual Time 7:09 AM EST 5:53 PM EST
Civil Twilight 6:44 AM EST 6:17 PM EST
Nautical Twilight 6:16 AM EST 6:46 PM EST
Astronomical Twilight 5:48 AM EST 7:13 PM EST
Moon 10:57 AM EST (1/17) 11:57 PM EST (1/17)
Length of Visible Light 11h 33m
Length of Day
10h 43m
Waxing Crescent, 37% of the Moon is Illuminated
Jan 17
Waxing Crescent
Jan 18
First Quarter
Jan 26
Full
Feb 3
Last Quarter
Feb 10
New

Hourly Weather History & Observations

Time (EST) Temp. Heat Index Dew Point Humidity Pressure Visibility Wind Dir Wind Speed Gust Speed Precip Events Conditions
12:53 AM 69.1 °F - 66.9 °F 93% 30.06 in 10.0 mi Calm Calm - N/A   Clear
1:32 AM 69.8 °F - 68.0 °F 94% 30.06 in 10.0 mi East 3.5 mph - N/A   Mostly Cloudy
1:48 AM 69.8 °F - 66.2 °F 88% 30.06 in 10.0 mi East 4.6 mph - N/A   Mostly Cloudy
1:53 AM 68.0 °F - 66.9 °F 96% 30.06 in 10.0 mi East 3.5 mph - N/A   Scattered Clouds
2:53 AM 70.0 °F - 69.1 °F 97% 30.06 in 10.0 mi Calm Calm - N/A   Overcast
3:53 AM 69.1 °F - 66.9 °F 93% 30.05 in 10.0 mi Calm Calm - N/A   Clear
4:53 AM 68.0 °F - 66.0 °F 93% 30.05 in 10.0 mi Calm Calm - N/A   Clear
5:53 AM 66.0 °F - 64.9 °F 96% 30.06 in 10.0 mi Calm Calm - N/A   Clear
6:53 AM 64.9 °F - 64.0 °F 97% 30.07 in 10.0 mi Calm Calm - N/A   Clear
7:53 AM 66.0 °F - 66.0 °F 100% 30.09 in 10.0 mi Calm Calm - N/A   Clear
8:53 AM 73.9 °F - 70.0 °F 87% 30.10 in 10.0 mi South 5.8 mph - N/A   Clear
9:53 AM 77.0 °F - 68.0 °F 74% 30.11 in 10.0 mi South 9.2 mph - N/A   Mostly Cloudy
10:33 AM 80.6 °F 83.2 °F 68.0 °F 65% 30.10 in 10.0 mi South 9.2 mph - N/A   Overcast
10:44 AM 78.8 °F - 66.2 °F 65% 30.10 in 10.0 mi South 9.2 mph - N/A   Mostly Cloudy
10:53 AM 81.0 °F 83.8 °F 68.0 °F 65% 30.09 in 10.0 mi South 10.4 mph - N/A   Mostly Cloudy
12:45 PM 71.6 °F - 68.0 °F 88% 30.06 in 10.0 mi SW 12.7 mph - 0.02 in Rain Light Rain
12:53 PM 71.1 °F - 68.0 °F 90% 30.06 in 10.0 mi SW 12.7 mph - 0.02 in Rain Light Rain
1:53 PM 71.1 °F - 68.0 °F 90% 30.02 in 10.0 mi South 13.8 mph - 0.03 in   Overcast
2:53 PM 72.0 °F - 69.1 °F 91% 30.01 in 10.0 mi SSE 6.9 mph - N/A   Overcast
3:53 PM 73.9 °F - 68.0 °F 82% 30.02 in 10.0 mi South 6.9 mph - N/A   Overcast
4:53 PM 77.0 °F - 66.9 °F 71% 30.01 in 10.0 mi South 8.1 mph - N/A   Mostly Cloudy
5:53 PM 75.0 °F - 66.0 °F 73% 30.03 in 10.0 mi SW 5.8 mph - N/A   Clear
6:53 PM 75.0 °F - 64.9 °F 71% 30.05 in 10.0 mi West 12.7 mph - N/A   Mostly Cloudy
7:15 PM 71.6 °F - 64.4 °F 78% 30.07 in 10.0 mi NW 19.6 mph 29.9 mph N/A   Overcast
7:53 PM 64.9 °F - 60.1 °F 84% 30.10 in 10.0 mi NW 15.0 mph 23.0 mph 0.00 in   Overcast
8:19 PM 64.4 °F - 57.2 °F 77% 30.11 in 10.0 mi NW 19.6 mph 27.6 mph N/A   Mostly Cloudy
8:53 PM 62.1 °F - 55.9 °F 80% 30.12 in 10.0 mi NW 11.5 mph - N/A   Clear
9:08 PM 62.6 °F - 55.4 °F 77% 30.13 in 10.0 mi NW 16.1 mph - N/A   Mostly Cloudy
9:53 PM 62.1 °F - 55.0 °F 78% 30.12 in 10.0 mi WNW 13.8 mph - N/A   Overcast
10:17 PM 60.8 °F - 55.4 °F 82% 30.12 in 10.0 mi WNW 9.2 mph - N/A   Scattered Clouds
10:53 PM 61.0 °F - 54.0 °F 78% 30.12 in 10.0 mi NW 11.5 mph - N/A   Clear
11:53 PM 60.1 °F - 53.1 °F 78% 30.13 in 10.0 mi WNW 13.8 mph - N/A   Clear